Regional Weather Roundup
Issued by NWS Portland, ME

Current Version | Previous Version | Text Only | Print | Product List | Glossary Off
Versions: 1 2 3 4 5 6 7 8 9 10 11 12 13 14 15 16 17 18 19 20 21 22 23 24 25 26 27 28 29 30 31 32 33 34 35 36 37 38 39 40 41 42 43 44 45 46 47 48 49 50
000 ASUS41 KGYX 280910 RWRGYX WEATHER ROUNDUP FOR MAINE AND NEW HAMPSHIRE NATIONAL WEATHER SERVICE GRAY ME 500 AM EDT SUN MAY 28 2017 MEZ002-005-006-010-012-015-018-020-021-024-026-027-029-281000- MAINE CITY SKY/WX TMP DP RH WIND PRES REMARKS PORTLAND PTCLDY 46 44 93 CALM 29.95S SANFORD FOG 45 45 100 N3 29.94F VSB 1/4 BAR HARBOR CLEAR 39 38 96 CALM 29.97R WISCASSET FOG 44 43 96 CALM 29.96F VSB 1/2 ROCKLAND FOG 39 38 96 CALM 29.96S VSB 1/4 FRYEBURG FOG 41 41 100 CALM 29.94S VSB 1/2 LEWISTONAUBURN CLOUDY 45 43 93 CALM 29.94F AUGUSTA FOG 44 43 96 CALM 29.95S VSB 1/4 WATERVILLE FOG 44 44 100 VRB3 29.92F VSB 1/4 BANGOR PTCLDY 40 40 100 CALM 29.95S GREENVILLE N/A 44 44 100 CALM 29.90S MILLINOCKET CLOUDY 41 41 100 CALM 29.95R HOULTON CLEAR 36 36 100 VRB3 29.93R PRESQUE ISLE FOG 39 39 100 SW3 29.94R VSB 1 FRENCHVILLE CLEAR 42 40 92 SE10 29.89R CARIBOU PTCLDY 43 40 89 S5 29.92R $$ NHZ002-005-008-009-011-012-014-281000- NEW HAMPSHIRE CITY SKY/WX TMP DP RH WIND PRES REMARKS PORTSMOUTH MOCLDY 48 47 96 NE3 29.92S ROCHESTER FOG 44 42 93 CALM 29.93S VSB 1/2 NASHUA PTCLDY 51 49 92 CALM 29.92S MANCHESTER CLEAR 50 45 83 N5 29.92R CONCORD CLEAR 47 45 93 CALM 29.93R LACONIA CLEAR 47 46 97 CALM 29.93S PLYMOUTH CLOUDY 50 49 97 CALM 29.93R BERLIN FOG 44 41 89 CALM 29.92R VSB 1/4 WHITEFIELD CLEAR 41 37 86 CALM 29.92R JAFFREY CLOUDY 56 55 97 S3 29.90F KEENE CLOUDY 55 54 96 CALM 29.91R LEBANON FOG 52 52 100 NE3 29.91R VSB 3/4 MT WASHINGTON FOG 36 36 100 N6 N/A VSB 1/8 $$ VTZ005-007-008-281000- VERMONT CITY SKY/WX TMP DP RH WIND PRES REMARKS ST JOHNSBURY N/A 48 48 100 MISG 29.90S MONTPELIER FOG 44 44 100 CALM 29.94R VSB 1/4 BURLINGTON CLEAR 52 49 89 CALM 29.90S $$ MAZ007-012-024-CTZ003-RIZ002-NYZ038-NYZ072-281000- SOUTHERN NEW ENGLAND AND NY CITY SKY/WX TMP DP RH WIND PRES REMARKS BOSTON MOCLDY 55 52 89 SW7 29.92S WORCESTER CLOUDY 55 52 89 W5 29.91S NANTUCKET LGT RAIN 47 45 93 SE6 29.94R PROVIDENCE CLOUDY 55 55 100 S6 29.94R HARTFORD CLOUDY 57 53 86 SE3 29.90F ALBANY CLOUDY 60 55 83 SW3 29.90R NEW YORK CITY PTCLDY 59 56 89 E5 29.90R $$ ANZ081-ANZ082-ANZ150-NHZ014-MEZ023>029-281000- COASTAL MARINE OBSERVATIONS STATION/POSITION TIME TEMP WIND PRES WAVE AIR SEA DIR/SP/G HT/PER (UTC) (F) (DEG/KT/KT) (MB) (FT/S) MOUNT DESERT ROC 0900 45 1014.5R MATINICUS ROCK 0800 47 230/ 3/ 3 1013.7F ISLE OF SHOALS 0800 50 120/ 10/ 11 1013.1R JEFFREYS LEDGE 0806 49 N/A 3/ 9 CASHES LEDGE BUO 0750 46 48 1014.0 3/ 8 GEORGES BANK BUO 0750 47 47 1012.3 5/ 9 $$ .............KEY.............. WCI - WIND CHILL TC - TEMPERATURE IN CELSIUS VSB - VISIBILITY IN MILES HX - HEAT INDEX FAIR- INDICATES FEW OR NO CLOUDS BELOW 12,000 FT, WITH NO SIGNIFICANT WEATHER AND/OR OBSTRUCTIONS TO VISIBILITY.

USA.gov is the U.S. government's official web portal to all federal, state and local government web resources and services.